Jacksonville Craig, FL

6:12 PM EDT on March 23, 2017 (GMT -0400)
Craig Municipal

Weather History for KCRG - April, 2014

Change the Weather History Date:

Tuesday, April 1, 2014

  Actual Average Record
Temperature  
Mean Temperature 66 °F -  
Max Temperature 81 °F 74 °F 89 °F (2016)
Min Temperature 51 °F 54 °F 37 °F (2003)
Growing Degree Days 16 (Base 50)    
Moisture  
Dew Point 47 °F    
Average Humidity 62    
Maximum Humidity 89    
Minimum Humidity 22    
Precipitation  
Precipitation 0.00 in - - ()
Sea Level Pressure  
Sea Level Pressure 30.15 in    
Wind  
Wind Speed 3 mph (SSE)    
Max Wind Speed 12 mph    
Max Gust Speed -    
Visibility 8 miles    
Events Rain    
Averages and records for this station are not official NWS values.
T = Trace of Precipitation, MM = Missing Value Source: NWS Daily Summary

Daily Weather History Graph

Daily Weather History Graph

Search for Another Location

Airport or City:

Trip Planner

Search our weather history database for the weather conditions in past years. The results will help you decide how hot, cold, wet, or windy it might be!

Date:

Astronomy

Apr. 01, 2014 Rise Set
Actual Time 7:15 AM EDT 7:44 PM EDT
Civil Twilight 6:51 AM EDT 8:09 PM EDT
Nautical Twilight 6:22 AM EDT 8:37 PM EDT
Astronomical Twilight 5:54 AM EDT 9:06 PM EDT
Moon 8:25 AM EDT (4/1) 9:55 PM EDT (4/1)
Length of Visible Light 13h 18m
Length of Day
12h 29m
Waxing Crescent, 4% of the Moon is Illuminated
Apr 1
Waxing Crescent
Apr 7
First Quarter
Apr 15
Full
Apr 22
Last Quarter
Apr 29
New

Hourly Weather History & Observations

Time (EDT) Temp. Dew Point Humidity Pressure Visibility Wind Dir Wind Speed Gust Speed Precip Events Conditions
12:53 AM 55.9 °F 51.1 °F 84% 30.15 in 10.0 mi South 3.5 mph - N/A   Clear
1:53 AM 55.9 °F 51.1 °F 84% 30.14 in 10.0 mi Calm Calm - N/A   Clear
2:53 AM 55.0 °F 51.1 °F 86% 30.14 in 10.0 mi SSW 3.5 mph - N/A   Clear
3:53 AM 55.9 °F 52.0 °F 87% 30.14 in 10.0 mi Calm Calm - N/A   Clear
4:53 AM 55.0 °F 50.0 °F 83% 30.14 in 9.0 mi Calm Calm - 0.00 in Rain Light Rain
5:37 AM 52.0 °F 48.0 °F 86% 30.14 in 1.8 mi Calm Calm - 0.00 in   Clear
5:41 AM 53.1 °F 48.9 °F 86% 30.14 in 3.0 mi Calm Calm - 0.00 in   Clear
5:51 AM 51.8 °F 48.2 °F 88% 30.14 in 1.8 mi Calm Calm - 0.00 in   Clear
5:53 AM 51.1 °F 48.0 °F 89% 30.14 in 1.5 mi Calm Calm - 0.00 in   Clear
6:00 AM 51.1 °F 48.0 °F 89% 30.14 in 6.0 mi Calm Calm - N/A   Clear
6:53 AM 52.0 °F 48.9 °F 89% 30.15 in 6.0 mi Calm Calm - 0.00 in Rain Light Rain
7:53 AM 53.1 °F 50.0 °F 89% 30.17 in 10.0 mi Calm Calm - 0.00 in   Clear
8:53 AM 61.0 °F 54.0 °F 78% 30.19 in 10.0 mi WNW 4.6 mph - N/A   Clear
9:53 AM 66.9 °F 53.1 °F 61% 30.20 in 10.0 mi NW 3.5 mph - N/A   Clear
10:53 AM 73.0 °F 48.0 °F 41% 30.21 in 10.0 mi WNW 4.6 mph - N/A   Clear
11:53 AM 77.0 °F 46.0 °F 33% 30.21 in 10.0 mi North 4.6 mph - N/A   Clear
12:53 PM 79.0 °F 41.0 °F 26% 30.18 in 10.0 mi South 6.9 mph - N/A   Clear
1:53 PM 80.1 °F 37.9 °F 22% 30.17 in 10.0 mi Variable 4.6 mph - N/A   Clear
2:53 PM 80.1 °F 43.0 °F 27% 30.14 in 10.0 mi ESE 10.4 mph - N/A   Clear
3:53 PM 80.1 °F 43.0 °F 27% 30.13 in 10.0 mi East 11.5 mph - N/A   Clear
4:53 PM 78.1 °F 39.0 °F 25% 30.12 in 10.0 mi ESE 11.5 mph - N/A   Clear
5:53 PM 77.0 °F 39.0 °F 25% 30.12 in 10.0 mi SE 8.1 mph - N/A   Clear
6:53 PM 73.0 °F 44.1 °F 35% 30.13 in 10.0 mi SE 9.2 mph - N/A   Clear
7:53 PM 68.0 °F 46.9 °F 47% 30.14 in 10.0 mi SSE 6.9 mph - N/A   Clear
8:53 PM 64.9 °F 48.0 °F 54% 30.15 in 10.0 mi South 5.8 mph - N/A   Clear
9:53 PM 64.0 °F 48.9 °F 58% 30.16 in 10.0 mi South 5.8 mph - N/A   Clear
10:53 PM 62.1 °F 50.0 °F 65% 30.17 in 10.0 mi South 4.6 mph - N/A   Clear
11:53 PM 60.1 °F 51.1 °F 72% 30.17 in 10.0 mi SSE 5.8 mph - N/A   Clear